Torna al catalogo

STARLINK-3364

AttivoComunicazioniVLEO
NORAD 51152·PAYLOAD·🇺🇸 United States

Lanciato Jan 19, 2022 da Cape Canaveral Space Force Station

Loading…

Prossimi Passaggi (prossime 24 ore)

TLE

AggiornatoSource: CelesTrak SupGP

Epoca: Sep 15, 2026, 01:23 UTC

1 51152C 22005BA  26258.05812500 -.00001116  00000+0 -33857-4 0  2585
2 51152  53.1578 165.2038 0001415  82.3114 240.8726 15.33544112    19

Traccia STARLINK-3364 in tempo reale con AllMySat

Download on the App Store